Location: Ar Ranvel
(48.3000°N, 4.8833°W)
Time: 16:37:08
(UTC+00:00)

Cosmos 2016 Rocket - Pass Details

Date: 16 June 2021
Orbit: 947 x 1000 km, 83.0° (Epoch: 31 July)

Event Time Altitude Azimuth Distance (km) Brightness Sun altitude
Rises 22:02:21 0° 351° (N) 3,632 8.4 -11.9°
Reaches altitude 10° 22:04:52 10° 353° (N) 2,681 7.4 -12.2°
Maximum altitude 22:11:00 80° 80° (E) 967 4.0 -12.7°
Enters shadow 22:15:56 16° 167° (SSE) 2,237 5.3 -13.1°
